Location: Brunsbüttel
(52.3892°N, 10.6138°E)
Time: 23:31:16
(UTC+00:00)

PSLV R/B - Pass Details

Date: 19 May 2025
Orbit: 586 x 683 km, 97.9° (Epoch: 15 June)

Event Time Altitude Azimuth Distance (km) Brightness Sun altitude
Rises 22:39:14 0° 18° (NNE) 2,852 8.1 -17.2°
Reaches altitude 10° 22:41:29 10° 24° (NNE) 1,936 7.0 -17.3°
Maximum altitude 22:45:33 48° 99° (E) 774 3.9 -17.4°
Enters shadow 22:46:54 34° 150° (SSE) 971 4.1 -17.4°
